This is the latest recevied weather packets stored in our database for station/object K6HFP. If no packets are shown the sender has not sent any weather packets the latest 10 day(s).
| Time | Temp. | Humidity | Pressure | Rain* | Wind** | Luminosity | Snow |
|---|---|---|---|---|---|---|---|
| 1778001101 | 11.67° C | 93% | 1014.4 hPa | 0 mm | - | 271 W/m² | - |
| 1778000798 | 11.67° C | 93% | 1014.4 hPa | 0 mm | - | 163 W/m² | - |
| 1778000494 | 11.67° C | 92% | 1014.7 hPa | 0 mm | - | 152 W/m² | - |
| 1778000189 | 11.11° C | 92% | 1014.6 hPa | 0 mm | - | 113 W/m² | - |
| 1777999886 | 11.11° C | 92% | 1014.7 hPa | 0 mm | - | 95 W/m² | - |
| 1777999581 | 11.11° C | 92% | 1014.4 hPa | 0 mm | - | 133 W/m² | - |
| 1777999279 | 11.67° C | 93% | 1014.6 hPa | 0 mm | - | 155 W/m² | - |
| 1777998977 | 11.11° C | 93% | 1014.4 hPa | 0 mm | - | 141 W/m² | - |
| 1777998674 | 11.11° C | 93% | 1014.6 hPa | 0 mm | - | 99 W/m² | - |
| 1777998372 | 11.11° C | 93% | 1014.3 hPa | 0 mm | - | 131 W/m² | - |
| 1777998070 | 11.11° C | 94% | 1014.3 hPa | 0 mm | - | 135 W/m² | - |
| 1777997766 | 11.11° C | 95% | 1014.2 hPa | 0 mm | - | 110 W/m² | - |
| 1777997463 | 11.11° C | 95% | 1014.3 hPa | 0 mm | - | 129 W/m² | - |
| 1777997161 | 10.56° C | 95% | 1014.2 hPa | 0 mm | - | 116 W/m² | - |
| 1777996858 | 10.56° C | 96% | 1014.4 hPa | 0 mm | - | 121 W/m² | - |
| 1777996554 | 10.56° C | 96% | 1014.2 hPa | 0 mm | - | 99 W/m² | - |
| 1777996251 | 10.56° C | 96% | 1014.2 hPa | 0 mm | - | 73 W/m² | - |
| 1777995947 | 10.56° C | 96% | 1014.3 hPa | 0 mm | - | 47 W/m² | - |
| 1777995643 | 10.56° C | 96% | 1014.2 hPa | 0 mm | - | 45 W/m² | - |
| 1777995341 | 10.56° C | 96% | 1014.3 hPa | 0 mm | - | 66 W/m² | - |
| 1777995038 | 10.56° C | 96% | 1014.1 hPa | 0 mm | - | 60 W/m² | - |
| 1777994735 | 10.56° C | 96% | 1013.9 hPa | 0 mm | - | 77 W/m² | - |
| 1777994431 | 10.56° C | 96% | 1014.1 hPa | 0 mm | - | 55 W/m² | - |
| 1777994131 | 10.56° C | 96% | 1013.9 hPa | 0 mm | - | 57 W/m² | - |
| 1777993829 | 10.56° C | 96% | 1013.8 hPa | 0 mm | - | 40 W/m² | - |
* Rain latest hour (hover to see other rain measurements)
** Current wind speed in m/s (hover to see current wind gust speed)